Time,TemperatureF,DewpointF,PressureIn,WindDirection,WindDirectionDegrees,WindSpeedMPH,WindSpeedGustMPH,Humidity,HourlyPrecipIn,Conditions,Clouds,dailyrainin,SoftwareType,DateUTC
2013-02-08 00:00:00,40.1,20.4,24.46,NW,315,4.6,4.6,45,0.00,CLR,,0.00,WeatherDisplay:10.37,2013-02-08 07:00:00,
2013-02-08 00:05:00,39.9,20.3,24.45,NW,315,5.8,5.8,45,0.00,CLR,,0.00,WeatherDisplay:10.37,2013-02-08 07:05:00,
2013-02-08 00:10:00,40.1,20.4,24.46,West,270,5.8,5.8,45,0.00,CLR,,0.00,WeatherDisplay:10.37,2013-02-08 07:10:00,
2013-02-08 00:15:00,38.8,19.8,24.45,West,270,5.8,5.8,46,0.00,CLR,,0.00,WeatherDisplay:10.37,2013-02-08 07:15:00,
2013-02-08 00:20:00,38.1,19.6,24.45,WNW,292,6.9,6.9,47,0.00,CLR,,0.00,WeatherDisplay:10.37,2013-02-08 07:20:00,
2013-02-08 00:26:00,38.1,19.6,24.46,NW,315,5.8,5.8,47,0.00,CLR,,0.00,WeatherDisplay:10.37,2013-02-08 07:26:00,
2013-02-08 00:31:00,37.6,19.1,24.45,NW,315,5.8,5.8,47,0.00,CLR,,0.00,WeatherDisplay:10.37,2013-02-08 07:31:00,
2013-02-08 00:36:00,37.2,17.3,24.45,WNW,292,5.8,6.0,44,0.00,CLR,,0.00,WeatherDisplay:10.37,2013-02-08 07:36:00,
2013-02-08 00:41:00,36.7,16.8,24.45,North,0,5.8,5.8,44,0.00,CLR,,0.00,WeatherDisplay:10.37,2013-02-08 07:41:00,
2013-02-08 00:46:00,36.3,17.0,24.46,NW,315,4.6,4.6,45,0.00,CLR,,0.00,WeatherDisplay:10.37,2013-02-08 07:46:00,
2013-02-08 00:52:00,36.1,16.8,24.45,NW,315,8.1,8.1,45,0.00,CLR,,0.00,WeatherDisplay:10.37,2013-02-08 07:52:00,
2013-02-08 00:57:00,36.7,17.8,24.45,North,0,10.4,10.4,46,0.00,CLR,,0.00,WeatherDisplay:10.37,2013-02-08 07:57:00,
2013-02-08 01:02:00,37.0,18.1,24.44,North,0,8.1,8.1,46,0.00,CLR,,0.00,WeatherDisplay:10.37,2013-02-08 08:02:00,
2013-02-08 01:07:00,36.9,18.5,24.44,NW,315,8.1,8.1,47,0.00,CLR,,0.00,WeatherDisplay:10.37,2013-02-08 08:07:00,
2013-02-08 01:13:00,36.5,18.6,24.45,NW,315,6.9,6.9,48,0.00,CLR,,0.00,WeatherDisplay:10.37,2013-02-08 08:13:00,
2013-02-08 01:18:00,36.1,18.8,24.44,NW,315,6.9,6.9,49,0.00,CLR,,0.00,WeatherDisplay:10.37,2013-02-08 08:18:00,
2013-02-08 01:23:00,36.0,19.1,24.45,NW,315,6.9,6.9,50,0.00,CLR,,0.00,WeatherDisplay:10.37,2013-02-08 08:23:00,
2013-02-08 01:28:00,36.0,19.6,24.44,NW,315,8.1,8.1,51,0.00,CLR,,0.00,WeatherDisplay:10.37,2013-02-08 08:28:00,
2013-02-08 01:34:00,36.9,20.4,24.44,North,0,10.4,10.4,51,0.00,CLR,,0.00,WeatherDisplay:10.37,2013-02-08 08:34:00,
2013-02-08 01:39:00,37.4,22.3,24.44,North,0,8.1,8.1,54,0.00,CLR,,0.00,WeatherDisplay:10.37,2013-02-08 08:39:00,
2013-02-08 01:44:00,37.6,22.0,24.44,North,0,8.1,8.1,53,0.00,CLR,,0.00,WeatherDisplay:10.37,2013-02-08 08:44:00,
2013-02-08 01:49:00,37.0,19.6,24.44,NW,315,8.1,8.1,49,0.00,CLR,,0.00,WeatherDisplay:10.37,2013-02-08 08:49:00,
2013-02-08 01:54:00,36.9,19.9,24.44,North,0,9.2,9.2,50,0.00,CLR,,0.00,WeatherDisplay:10.37,2013-02-08 08:54:00,
2013-02-08 02:00:00,36.9,19.9,24.44,North,0,10.4,10.4,50,0.00,CLR,,0.00,WeatherDisplay:10.37,2013-02-08 09:00:00,
2013-02-08 02:05:00,37.4,21.4,24.44,North,0,8.1,8.1,52,0.00,CLR,,0.00,WeatherDisplay:10.37,2013-02-08 09:05:00,
2013-02-08 02:10:00,37.2,19.3,24.44,NE,45,6.9,6.9,48,0.00,CLR,,0.00,WeatherDisplay:10.37,2013-02-08 09:10:00,
2013-02-08 02:15:00,37.2,19.3,24.44,North,0,9.2,9.2,48,0.00,CLR,,0.00,WeatherDisplay:10.37,2013-02-08 09:15:00,
2013-02-08 02:21:00,37.4,20.9,24.44,NE,45,8.1,8.1,51,0.00,CLR,,0.00,WeatherDisplay:10.37,2013-02-08 09:21:00,
2013-02-08 02:26:00,37.2,18.8,24.44,NNE,22,8.1,8.1,47,0.00,CLR,,0.00,WeatherDisplay:10.37,2013-02-08 09:26:00,
2013-02-08 02:31:00,37.2,18.8,24.43,North,0,10.4,10.4,47,0.00,CLR,,0.00,WeatherDisplay:10.37,2013-02-08 09:31:00,
2013-02-08 02:37:00,37.0,18.7,24.43,NE,45,10.4,10.4,47,0.00,CLR,,0.00,WeatherDisplay:10.37,2013-02-08 09:37:00,
2013-02-08 02:42:00,36.9,18.5,24.42,NE,45,9.2,9.2,47,0.00,CLR,,0.00,WeatherDisplay:10.37,2013-02-08 09:42:00,
2013-02-08 02:47:00,36.7,18.3,24.43,North,0,10.4,10.4,47,0.00,CLR,,0.00,WeatherDisplay:10.37,2013-02-08 09:47:00,
2013-02-08 02:52:00,36.5,18.2,24.43,North,0,8.1,8.1,47,0.00,CLR,,0.00,WeatherDisplay:10.37,2013-02-08 09:52:00,
2013-02-08 02:58:00,36.5,18.6,24.43,NE,45,8.1,8.1,48,0.00,CLR,,0.00,WeatherDisplay:10.37,2013-02-08 09:58:00,
2013-02-08 03:03:00,36.5,18.2,24.43,East,90,9.2,9.2,47,0.00,CLR,,0.00,WeatherDisplay:10.37,2013-02-08 10:03:00,
2013-02-08 03:08:00,36.7,18.3,24.43,NNE,22,9.2,9.2,47,0.00,CLR,,0.00,WeatherDisplay:10.37,2013-02-08 10:08:00,
2013-02-08 03:13:00,36.7,18.3,24.43,NE,45,13.8,13.8,47,0.00,CLR,,0.00,WeatherDisplay:10.37,2013-02-08 10:13:00,
2013-02-08 03:19:00,36.7,18.3,24.43,North,0,10.4,10.4,47,0.00,CLR,,0.00,WeatherDisplay:10.37,2013-02-08 10:19:00,
2013-02-08 03:24:00,36.3,18.0,24.42,North,0,9.2,9.2,47,0.00,CLR,,0.00,WeatherDisplay:10.37,2013-02-08 10:24:00,
2013-02-08 03:30:00,36.1,17.8,24.42,NE,45,11.5,11.5,47,0.00,CLR,,0.00,WeatherDisplay:10.37,2013-02-08 10:30:00,
2013-02-08 03:35:00,36.1,17.8,24.42,NE,45,10.4,10.4,47,0.00,CLR,,0.00,WeatherDisplay:10.37,2013-02-08 10:35:00,
2013-02-08 03:40:00,36.0,17.7,24.42,NE,45,8.1,8.1,47,0.00,CLR,,0.00,WeatherDisplay:10.37,2013-02-08 10:40:00,
2013-02-08 03:45:00,35.8,18.0,24.42,NE,45,8.1,8.1,48,0.00,CLR,,0.00,WeatherDisplay:10.37,2013-02-08 10:45:00,
2013-02-08 03:51:00,35.6,17.8,24.42,North,0,9.2,9.2,48,0.00,CLR,,0.00,WeatherDisplay:10.37,2013-02-08 10:51:00,
2013-02-08 03:56:00,35.4,18.1,24.42,NE,45,10.4,10.4,49,0.00,CLR,,0.00,WeatherDisplay:10.37,2013-02-08 10:56:00,
2013-02-08 04:01:00,35.2,18.0,24.42,NE,45,8.1,8.1,49,0.00,CLR,,0.00,WeatherDisplay:10.37,2013-02-08 11:01:00,
2013-02-08 04:06:00,35.2,18.4,24.42,North,0,11.5,11.5,50,0.00,CLR,,0.00,WeatherDisplay:10.37,2013-02-08 11:06:00,
2013-02-08 04:12:00,35.2,18.4,24.42,NE,45,10.4,10.4,50,0.00,CLR,,0.00,WeatherDisplay:10.37,2013-02-08 11:12:00,
2013-02-08 04:17:00,35.2,18.4,24.42,NE,45,11.5,11.5,50,0.00,CLR,,0.00,WeatherDisplay:10.37,2013-02-08 11:17:00,
2013-02-08 04:22:00,35.2,18.4,24.42,North,0,10.4,10.4,50,0.00,CLR,,0.00,WeatherDisplay:10.37,2013-02-08 11:22:00,
2013-02-08 04:27:00,35.2,18.4,24.41,North,0,10.4,10.4,50,0.00,CLR,,0.00,WeatherDisplay:10.37,2013-02-08 11:27:00,
2013-02-08 04:32:00,35.1,18.3,24.41,North,0,5.8,5.8,50,0.00,CLR,,0.00,WeatherDisplay:10.37,2013-02-08 11:32:00,
2013-02-08 04:38:00,34.9,18.1,24.41,NE,45,12.7,12.7,50,0.00,CLR,,0.00,WeatherDisplay:10.37,2013-02-08 11:38:00,
2013-02-08 04:43:00,35.1,18.3,24.42,North,0,10.4,10.4,50,0.00,CLR,,0.00,WeatherDisplay:10.37,2013-02-08 11:43:00,
2013-02-08 04:48:00,34.9,18.1,24.41,North,0,9.2,9.2,50,0.00,CLR,,0.00,WeatherDisplay:10.37,2013-02-08 11:48:00,
2013-02-08 04:53:00,34.9,18.1,24.41,NE,45,10.4,10.4,50,0.00,CLR,,0.00,WeatherDisplay:10.37,2013-02-08 11:53:00,
2013-02-08 04:58:00,34.9,18.1,24.42,North,0,9.2,9.2,50,0.00,CLR,,0.00,WeatherDisplay:10.37,2013-02-08 11:58:00,
2013-02-08 05:03:00,34.7,17.9,24.41,North,0,10.4,10.4,50,0.00,CLR,,0.00,WeatherDisplay:10.37,2013-02-08 12:03:00,
2013-02-08 05:09:00,34.7,18.4,24.41,North,0,10.4,10.4,51,0.00,CLR,,0.00,WeatherDisplay:10.37,2013-02-08 12:09:00,
2013-02-08 05:14:00,34.7,18.4,24.41,North,0,10.4,10.4,51,0.00,CLR,,0.00,WeatherDisplay:10.37,2013-02-08 12:14:00,
2013-02-08 05:19:00,34.7,18.4,24.41,NE,45,11.5,11.5,51,0.00,CLR,,0.00,WeatherDisplay:10.37,2013-02-08 12:19:00,
2013-02-08 05:24:00,34.7,18.4,24.41,North,0,8.1,8.1,51,0.00,CLR,,0.00,WeatherDisplay:10.37,2013-02-08 12:24:00,
2013-02-08 05:29:00,34.7,18.4,24.41,NE,45,9.2,9.2,51,0.00,CLR,,0.00,WeatherDisplay:10.37,2013-02-08 12:29:00,
2013-02-08 05:35:00,34.7,18.4,24.41,NE,45,10.4,10.4,51,0.00,CLR,,0.00,WeatherDisplay:10.37,2013-02-08 12:35:00,
2013-02-08 05:40:00,34.7,18.4,24.41,North,0,9.2,9.2,51,0.00,CLR,,0.00,WeatherDisplay:10.37,2013-02-08 12:40:00,
2013-02-08 05:45:00,34.7,18.4,24.41,North,0,9.2,9.2,51,0.00,CLR,,0.00,WeatherDisplay:10.37,2013-02-08 12:45:00,
2013-02-08 05:51:00,34.7,18.4,24.40,WNW,292,9.2,9.2,51,0.00,CLR,,0.00,WeatherDisplay:10.37,2013-02-08 12:51:00,
2013-02-08 05:56:00,34.7,18.4,24.41,NNE,22,9.2,9.2,51,0.00,CLR,,0.00,WeatherDisplay:10.37,2013-02-08 12:56:00,
2013-02-08 06:01:00,34.7,18.4,24.40,NNE,22,11.5,11.5,51,0.00,CLR,,0.00,WeatherDisplay:10.37,2013-02-08 13:01:00,
2013-02-08 06:06:00,34.7,18.4,24.41,NE,45,8.1,8.1,51,0.00,CLR,,0.00,WeatherDisplay:10.37,2013-02-08 13:06:00,
2013-02-08 06:12:00,34.7,18.4,24.41,NNE,22,10.4,10.4,51,0.00,CLR,,0.00,WeatherDisplay:10.37,2013-02-08 13:12:00,
2013-02-08 06:17:00,34.5,18.2,24.40,NE,45,10.4,10.4,51,0.00,CLR,,0.00,WeatherDisplay:10.37,2013-02-08 13:17:00,
2013-02-08 06:22:00,34.3,18.5,24.41,North,0,10.4,10.4,52,0.00,CLR,,0.00,WeatherDisplay:10.37,2013-02-08 13:22:00,
2013-02-08 06:27:00,34.2,18.3,24.41,North,0,10.4,10.4,52,0.00,CLR,,0.00,WeatherDisplay:10.37,2013-02-08 13:27:00,
2013-02-08 06:33:00,34.2,18.3,24.41,North,0,10.4,10.4,52,0.00,CLR,,0.00,WeatherDisplay:10.37,2013-02-08 13:33:00,
2013-02-08 06:38:00,34.0,18.2,24.40,North,0,11.5,11.5,52,0.00,CLR,,0.00,WeatherDisplay:10.37,2013-02-08 13:38:00,
2013-02-08 07:36:00,34.0,18.2,24.41,NE,45,9.2,9.2,52,0.00,CLR,,0.00,WeatherDisplay:10.37,2013-02-08 14:36:00,
2013-02-08 07:41:00,35.1,19.2,24.41,North,0,5.8,5.8,52,0.00,CLR,,0.00,WeatherDisplay:10.37,2013-02-08 14:41:00,
2013-02-08 07:46:00,35.8,18.9,24.41,NNE,22,6.9,6.9,50,0.00,CLR,,0.00,WeatherDisplay:10.37,2013-02-08 14:46:00,
2013-02-08 07:52:00,35.8,18.9,24.41,North,0,8.1,8.1,50,0.00,CLR,,0.00,WeatherDisplay:10.37,2013-02-08 14:52:00,
2013-02-08 07:57:00,36.3,19.0,24.41,NE,45,6.9,6.9,49,0.00,CLR,,0.00,WeatherDisplay:10.37,2013-02-08 14:57:00,
2013-02-08 08:02:00,36.3,19.0,24.42,NE,45,8.1,8.1,49,0.00,CLR,,0.00,WeatherDisplay:10.37,2013-02-08 15:02:00,
2013-02-08 08:07:00,36.7,18.8,24.41,North,0,10.7,10.7,48,0.00,CLR,,0.00,WeatherDisplay:10.37,2013-02-08 15:07:00,
2013-02-08 08:12:00,36.9,19.0,24.41,North,0,10.4,10.4,48,0.00,CLR,,0.00,WeatherDisplay:10.37,2013-02-08 15:12:00,
2013-02-08 08:17:00,37.0,19.1,24.41,NE,45,9.2,9.2,48,0.00,CLR,,0.00,WeatherDisplay:10.37,2013-02-08 15:17:00,
2013-02-08 08:22:00,37.2,19.3,24.41,NNE,22,9.2,9.2,48,0.00,CLR,,0.00,WeatherDisplay:10.37,2013-02-08 15:22:00,
2013-02-08 08:27:00,37.4,21.4,24.41,North,0,9.2,9.2,52,0.00,CLR,,0.00,WeatherDisplay:10.37,2013-02-08 15:27:00,
2013-02-08 08:33:00,37.9,21.4,24.41,NE,45,10.4,10.4,51,0.00,CLR,,0.00,WeatherDisplay:10.37,2013-02-08 15:33:00,
2013-02-08 08:38:00,38.8,21.8,24.41,NE,45,9.8,9.8,50,0.00,CLR,,0.00,WeatherDisplay:10.37,2013-02-08 15:38:00,
2013-02-08 08:43:00,39.2,21.6,24.41,NE,45,10.4,10.4,49,0.00,CLR,,0.00,WeatherDisplay:10.37,2013-02-08 15:43:00,
2013-02-08 08:48:00,39.4,21.3,24.41,NE,45,5.8,8.3,48,0.00,CLR,,0.00,WeatherDisplay:10.37,2013-02-08 15:48:00,
2013-02-08 08:53:00,39.4,21.3,24.40,North,0,10.4,10.4,48,0.00,CLR,,0.00,WeatherDisplay:10.37,2013-02-08 15:53:00,
2013-02-08 08:59:00,39.9,21.8,24.40,NE,45,10.4,10.4,48,0.00,CLR,,0.00,WeatherDisplay:10.37,2013-02-08 15:59:00,
2013-02-08 09:04:00,39.9,21.8,24.40,NNE,22,10.4,10.4,48,0.00,CLR,,0.00,WeatherDisplay:10.37,2013-02-08 16:04:00,
2013-02-08 09:09:00,40.5,21.8,24.40,NE,45,10.4,10.4,47,0.00,CLR,,0.00,WeatherDisplay:10.37,2013-02-08 16:09:00,
2013-02-08 09:14:00,40.3,21.6,24.40,NE,45,11.5,11.5,47,0.00,CLR,,0.00,WeatherDisplay:10.37,2013-02-08 16:14:00,
2013-02-08 09:19:00,40.6,22.0,24.39,NE,45,10.4,10.4,47,0.00,CLR,,0.00,WeatherDisplay:10.37,2013-02-08 16:19:00,
2013-02-08 09:25:00,41.4,22.1,24.39,NE,45,9.2,9.2,46,0.00,CLR,,0.00,WeatherDisplay:10.37,2013-02-08 16:25:00,
2013-02-08 09:30:00,41.4,21.6,24.39,NE,45,11.5,11.5,45,0.00,CLR,,0.00,WeatherDisplay:10.37,2013-02-08 16:30:00,
2013-02-08 09:35:00,42.1,22.2,24.39,NE,45,8.1,8.1,45,0.00,CLR,,0.00,WeatherDisplay:10.37,2013-02-08 16:35:00,
2013-02-08 09:40:00,42.8,22.4,24.39,North,0,8.1,8.1,44,0.00,CLR,,0.00,WeatherDisplay:10.37,2013-02-08 16:40:00,
2013-02-08 09:46:00,42.8,21.8,24.39,North,0,10.4,10.4,43,0.00,CLR,,0.00,WeatherDisplay:10.37,2013-02-08 16:46:00,
2013-02-08 09:51:00,43.2,22.1,24.39,NE,45,10.4,10.4,43,0.00,CLR,,0.00,WeatherDisplay:10.37,2013-02-08 16:51:00,
2013-02-08 09:56:00,43.2,22.1,24.39,South,180,11.5,11.5,43,0.00,CLR,,0.00,WeatherDisplay:10.37,2013-02-08 16:56:00,
2013-02-08 10:01:00,43.3,22.3,24.39,NE,45,10.4,10.4,43,0.00,CLR,,0.00,WeatherDisplay:10.37,2013-02-08 17:01:00,
2013-02-08 10:06:00,43.3,22.3,24.39,East,90,10.4,10.4,43,0.00,CLR,,0.00,WeatherDisplay:10.37,2013-02-08 17:06:00,
2013-02-08 10:11:00,43.5,22.5,24.38,NE,45,9.2,9.2,43,0.00,CLR,,0.00,WeatherDisplay:10.37,2013-02-08 17:11:00,
2013-02-08 10:16:00,43.7,22.1,24.39,East,90,12.7,12.7,42,0.00,CLR,,0.00,WeatherDisplay:10.37,2013-02-08 17:16:00,
2013-02-08 10:21:00,43.5,21.9,24.38,NE,45,8.1,8.1,42,0.00,CLR,,0.00,WeatherDisplay:10.37,2013-02-08 17:21:00,
2013-02-08 10:27:00,43.3,21.8,24.38,East,90,8.1,8.1,42,0.00,CLR,,0.00,WeatherDisplay:10.37,2013-02-08 17:27:00,
2013-02-08 10:32:00,43.5,21.9,24.38,NE,45,8.3,8.3,42,0.00,CLR,,0.00,WeatherDisplay:10.37,2013-02-08 17:32:00,
2013-02-08 10:37:00,43.7,22.1,24.38,East,90,9.2,9.2,42,0.00,CLR,,0.00,WeatherDisplay:10.37,2013-02-08 17:37:00,
2013-02-08 10:42:00,43.9,22.2,24.38,East,90,10.4,10.4,42,0.00,CLR,,0.00,WeatherDisplay:10.37,2013-02-08 17:42:00,
2013-02-08 10:47:00,43.7,22.1,24.38,East,90,5.8,5.8,42,0.00,CLR,,0.00,WeatherDisplay:10.37,2013-02-08 17:47:00,
2013-02-08 10:53:00,43.9,22.2,24.38,NE,45,5.8,5.8,42,0.00,CLR,,0.00,WeatherDisplay:10.37,2013-02-08 17:53:00,
2013-02-08 10:58:00,44.1,22.4,24.38,East,90,6.9,6.9,42,0.00,CLR,,0.00,WeatherDisplay:10.37,2013-02-08 17:58:00,
2013-02-08 11:03:00,44.2,22.6,24.37,NE,45,4.6,4.6,42,0.00,CLR,,0.00,WeatherDisplay:10.37,2013-02-08 18:03:00,
2013-02-08 11:08:00,44.8,22.5,24.37,East,90,8.1,8.1,41,0.00,CLR,,0.00,WeatherDisplay:10.37,2013-02-08 18:08:00,
2013-02-08 11:14:00,44.8,22.5,24.37,East,90,6.9,6.9,41,0.00,CLR,,0.00,WeatherDisplay:10.37,2013-02-08 18:14:00,
2013-02-08 11:19:00,45.1,22.8,24.36,East,90,3.5,3.5,41,0.00,CLR,,0.00,WeatherDisplay:10.37,2013-02-08 18:19:00,
2013-02-08 11:24:00,45.5,21.9,24.36,ESE,112,8.1,8.1,39,0.00,CLR,,0.00,WeatherDisplay:10.37,2013-02-08 18:24:00,
2013-02-08 11:30:00,45.1,21.6,24.35,SE,135,5.8,6.0,39,0.00,CLR,,0.00,WeatherDisplay:10.37,2013-02-08 18:30:00,
2013-02-08 11:35:00,45.1,21.6,24.35,SE,135,6.9,6.9,39,0.00,CLR,,0.00,WeatherDisplay:10.37,2013-02-08 18:35:00,
2013-02-08 11:41:00,45.9,22.3,24.35,East,90,6.0,6.0,39,0.00,CLR,,0.00,WeatherDisplay:10.37,2013-02-08 18:41:00,
2013-02-08 11:46:00,45.7,22.1,24.34,East,90,6.9,6.9,39,0.00,CLR,,0.00,WeatherDisplay:10.37,2013-02-08 18:46:00,
2013-02-08 11:51:00,45.9,22.3,24.34,East,90,8.3,8.3,39,0.00,CLR,,0.00,WeatherDisplay:10.37,2013-02-08 18:51:00,
2013-02-08 11:56:00,46.0,21.8,24.34,SE,135,8.1,8.1,38,0.00,CLR,,0.00,WeatherDisplay:10.37,2013-02-08 18:56:00,
2013-02-08 12:01:00,46.9,22.0,24.34,South,180,5.8,5.8,37,0.00,CLR,,0.00,WeatherDisplay:10.37,2013-02-08 19:01:00,
2013-02-08 12:06:00,47.5,21.8,24.34,East,90,5.8,5.8,36,0.00,CLR,,0.00,WeatherDisplay:10.37,2013-02-08 19:06:00,
2013-02-08 12:12:00,47.7,22.0,24.33,SE,135,9.2,9.2,36,0.00,CLR,,0.00,WeatherDisplay:10.37,2013-02-08 19:12:00,
2013-02-08 12:17:00,47.3,21.7,24.33,SE,135,5.8,5.8,36,0.00,CLR,,0.00,WeatherDisplay:10.37,2013-02-08 19:17:00,
2013-02-08 12:22:00,47.8,22.1,24.32,SE,135,6.9,6.9,36,0.00,CLR,,0.00,WeatherDisplay:10.37,2013-02-08 19:22:00,
2013-02-08 12:28:00,47.8,22.1,24.32,SE,135,6.0,6.0,36,0.00,CLR,,0.00,WeatherDisplay:10.37,2013-02-08 19:28:00,
2013-02-08 12:33:00,48.4,22.0,24.31,SE,135,5.8,5.8,35,0.00,CLR,,0.00,WeatherDisplay:10.37,2013-02-08 19:33:00,
2013-02-08 12:38:00,49.5,22.2,24.30,South,180,5.8,5.8,34,0.00,CLR,,0.00,WeatherDisplay:10.37,2013-02-08 19:38:00,
2013-02-08 12:43:00,50.0,22.0,24.31,South,180,8.1,8.1,33,0.00,CLR,,0.00,WeatherDisplay:10.37,2013-02-08 19:43:00,
2013-02-08 12:49:00,49.8,21.8,24.30,SE,135,8.1,8.1,33,0.00,CLR,,0.00,WeatherDisplay:10.37,2013-02-08 19:49:00,
2013-02-08 12:54:00,49.6,22.4,24.30,SE,135,6.9,6.9,34,0.00,CLR,,0.00,WeatherDisplay:10.37,2013-02-08 19:54:00,
2013-02-08 12:59:00,50.2,21.4,24.29,South,180,9.2,9.2,32,0.00,CLR,,0.00,WeatherDisplay:10.37,2013-02-08 19:59:00,
2013-02-08 13:05:00,50.0,21.3,24.29,East,90,5.8,5.8,32,0.00,CLR,,0.00,WeatherDisplay:10.37,2013-02-08 20:05:00,
2013-02-08 13:10:00,51.4,21.8,24.28,South,180,8.1,8.1,31,0.00,CLR,,0.00,WeatherDisplay:10.37,2013-02-08 20:10:00,
2013-02-08 13:15:00,51.6,21.9,24.28,South,180,8.1,8.3,31,0.00,CLR,,0.00,WeatherDisplay:10.37,2013-02-08 20:15:00,
2013-02-08 13:20:00,52.3,21.0,24.28,SE,135,15.0,15.0,29,0.00,CLR,,0.00,WeatherDisplay:10.37,2013-02-08 20:20:00,
2013-02-08 13:26:00,52.7,20.5,24.27,South,180,15.0,15.0,28,0.00,CLR,,0.00,WeatherDisplay:10.37,2013-02-08 20:26:00,
2013-02-08 13:31:00,53.4,21.1,24.27,SE,135,12.7,12.7,28,0.00,CLR,,0.00,WeatherDisplay:10.37,2013-02-08 20:31:00,
2013-02-08 13:36:00,54.0,19.8,24.26,South,180,13.8,13.8,26,0.00,CLR,,0.00,WeatherDisplay:10.37,2013-02-08 20:36:00,
2013-02-08 13:41:00,53.8,20.5,24.26,East,90,11.5,11.5,27,0.00,CLR,,0.00,WeatherDisplay:10.37,2013-02-08 20:41:00,